[[{"header":{"parameterUnit":"m.s-1","parameterCategory":1,"la1":30.2991,"la2":30.254,"lo1":-89.0895,"lo2":-89.0444,"dx":0.0017,"dy":0.0017,"nx":28,"ny":28,"refTime":"2022-11-03T21:00:00:Z","depth":0,"parameterNumber":2,"parameterNumberName":"U-component_of_WINDS"},"data":[0,0,0,0,0,0,0,0,0,0,0,0,0,0,0,0,0,0,0,0,0,0,0,0,0,0,0,0,0,0,0,0,0,0,0,0,0,0,0,0,0,0,0,0,0,0,0,0,0,0,0,0,0,0,0,0,0,0,-5.9614,-5.9613,0,-5.9596,-5.9595,-5.9595,-5.9477,-5.9474,-5.9471,-5.9468,-5.945,-5.9452,-5.9454,0,0,0,0,0,0,0,0,0,0,0,0,0,-5.9549,-5.955,-5.9614,-5.9613,-5.9613,-5.9596,-5.9595,-5.9595,-5.9477,-5.9474,-5.947,-5.9467,-5.9449,-5.9452,-5.9454,0,0,0,0,0,0,0,0,0,0,0,0,0,-5.9558,-5.9551,-5.9614,-5.9552,-5.9547,-5.9596,-5.9595,-5.9595,-5.9478,-5.9474,-5.9469,-5.9465,-5.9448,-5.9451,-5.9455,-5.9561,0,0,-5.9465,-5.9466,0,0,0,0,0,0,0,0,-5.9558,-5.9561,-5.9562,-5.9557,-5.955,-5.9534,-5.9565,-5.9584,-5.9479,-5.9504,-5.9468,-5.9463,-5.9481,-5.9482,-5.9488,-5.956,-5.9559,-5.9465,-5.9467,-5.9468,-5.9469,0,0,0,0,0,0,0,-5.9558,-5.9561,-5.9606,-5.9562,-5.9555,-5.9527,-5.9523,-5.9568,-5.9517,-5.9502,-5.9493,-5.9492,-5.9477,-5.9485,-5.9486,-5.9559,-5.9465,-5.9468,-5.947,-5.9471,-5.9721,-5.9725,0,0,0,0,0,0,-5.9565,-5.9561,-5.9607,-5.9606,-5.9544,-5.9531,-5.9527,-5.9544,-5.9516,-5.9508,-5.9496,-5.9487,-5.9481,-5.9483,-5.9485,-5.9608,-5.9468,-5.9471,-5.9473,-5.9716,-5.9722,-5.9727,0,0,0,0,0,0,-5.9564,-5.957,-5.9608,-5.9581,-5.9584,-5.9537,-5.9556,-5.9546,-5.9552,-5.9512,-5.9502,-5.9513,-5.9478,-5.9481,-5.9543,-5.9606,-5.9473,-5.9476,-5.971,-5.9718,-5.9724,-5.9855,0,0,0,0,0,0,-5.9563,-5.9571,-5.961,-5.9583,-5.9586,-5.9666,-5.956,-5.9548,-5.9559,-5.9546,-5.9525,-5.9518,-5.9475,-5.9539,-5.9547,-5.9608,-5.9478,-5.9704,-5.9714,-5.9722,-5.9845,-5.9865,-5.9883,0,0,0,0,0,-5.9561,-5.9646,-5.9612,-5.9618,-5.9633,-5.9669,-5.9671,-5.962,-5.9564,-5.9603,-5.9578,-5.9518,-5.9599,-5.9547,-5.9554,-5.9617,-5.97,-5.9711,-5.9721,-5.9836,-5.9861,-5.9883,0,0,0,0,0,0,-5.968,-5.9642,-5.9603,-5.9682,-5.968,-5.9649,-5.9696,-5.9648,-5.9661,-5.9649,-5.9586,-5.9582,-5.9655,-5.9643,-5.9585,-5.972,-5.9639,-5.9652,-5.9724,-5.9748,-5.9767,-5.9767,-5.9481,0,0,0,0,0,-5.9716,-5.9748,-5.9713,-5.9787,-5.9788,-5.9743,-5.9757,-5.9719,-5.9713,-5.9712,-5.9691,-5.9688,-5.9713,-5.9731,-5.9751,-5.9844,-5.9838,-5.9892,-5.9911,-5.9927,-5.9937,-5.9987,-6.001,-5.9761,-5.9761,-5.9761,0,0,-5.9789,-5.9772,-5.9796,-5.981,-5.9804,-5.9839,-5.9743,-5.9784,-5.9809,-5.9718,-5.9775,-5.9761,-5.9755,-5.9834,-5.9867,-5.9826,-6.0006,-5.994,-5.9954,-5.9955,-6.0,-6.0024,-6.0045,-5.9768,-5.9767,-5.9766,0,0,-5.9939,-5.9931,-5.9991,-5.9988,-5.9981,-5.9952,-5.9967,-5.9945,-5.9932,-5.999,-5.9922,-5.9953,-5.9997,-5.9995,-6.0001,-6.0158,-6.0104,-6.0167,-6.0266,-6.0315,-6.0335,-6.0352,-6.0407,-6.0428,-6.0179,-6.0179,-6.0179,0,-6.0031,-6.0081,-6.0028,-6.0075,-6.0084,-6.0005,-6.0067,-6.0066,-6.0066,-6.0075,-6.0029,-6.0085,-6.0075,-6.0152,-6.0192,-6.0199,-6.0214,-6.0167,-6.0336,-6.0353,-6.0368,-6.042,-6.0441,-6.0187,-6.0186,-6.0185,-6.0184,0,-6.0194,-6.023,-6.0281,-6.0284,-6.0299,-6.0353,-6.031,-6.0332,-6.0294,-6.0271,-6.0332,-6.0319,-6.0336,-6.0352,-6.0315,-6.0426,-6.0401,-6.0347,-6.0264,-6.04,-6.0448,-6.0467,-6.0197,-6.0195,-6.0192,-6.0191,0,0,-6.0412,-6.039,-6.0409,-6.0411,-6.04,-6.0427,-6.048,-6.0498,-6.0518,-6.0523,-6.0564,-6.0607,-6.0558,-6.0564,-6.0527,-6.0571,-6.0696,-6.0512,-6.051,-6.0545,-6.0818,-6.0856,-6.088,-6.0663,-6.0666,-6.0669,-6.0818,0,-6.0555,-6.0641,-6.0599,-6.0691,-6.0724,-6.0654,-6.07,-6.0699,-6.068,-6.0707,-6.0686,-6.0716,-6.065,-6.0654,-6.0694,-6.0672,-6.075,-6.0662,-6.07,-6.0702,-6.07,-6.0904,-6.0944,-6.1084,-6.0836,-6.0839,-6.0842,0,-6.0731,-6.0746,-6.0842,-6.0828,-6.084,-6.0882,-6.0897,-6.0924,-6.0923,-6.0906,-6.0916,-6.087,-6.0922,-6.0844,-6.0914,-6.0855,-6.087,-6.0862,-6.0867,-6.0865,-6.0777,-6.0906,-6.1128,-6.1148,-6.0871,-6.0868,-6.0866,0,-6.0879,-6.0923,-6.0986,-6.099,-6.0976,-6.1007,-6.1003,-6.0998,-6.1013,-6.1027,-6.1036,-6.1056,-6.1066,-6.1083,-6.1045,-6.0992,-6.1121,-6.1039,-6.1108,-6.1109,-6.1134,-6.1132,-6.1358,-6.1149,-6.1149,-6.1149,-6.1148,0,-6.1041,-6.1102,-6.1052,-6.1091,-6.1158,-6.1111,-6.1179,-6.1167,-6.1165,-6.12,-6.1142,-6.1177,-6.1126,-6.1156,-6.1127,-6.119,-6.1196,-6.1183,-6.1174,-6.1187,-6.1188,-6.1192,-6.118,-6.1154,-6.1153,-6.1152,-6.1151,0,-6.1214,-6.1184,-6.1248,-6.1232,-6.1229,-6.128,-6.1265,-6.1301,-6.1281,-6.1327,-6.1335,-6.1303,-6.1337,-6.1302,-6.1332,-6.1313,-6.1397,-6.1375,-6.1397,-6.1389,-6.1459,-6.1452,-6.1693,-6.1722,-6.1497,-6.15,-6.1501,0,-6.1317,-6.1363,-6.1353,-6.1374,-6.1374,-6.1407,-6.1423,-6.138,-6.1399,-6.1405,-6.144,-6.1469,-6.1489,-6.1546,-6.1526,-6.155,-6.1526,-6.1609,-6.1529,-6.154,-6.1525,-6.1521,-6.1525,-6.1624,-6.1627,-6.1629,-6.1631,0,-6.1504,-6.1488,-6.1513,-6.1535,-6.1556,-6.1571,-6.1581,-6.1601,-6.1557,-6.1582,-6.1616,-6.1633,-6.1666,-6.1695,-6.1714,-6.171,-6.1663,-6.1657,-6.1674,-6.1685,-6.1695,-6.1688,-6.1438,-6.165,-6.1648,-6.1647,-6.1646,-6.1645,-6.1643,-6.1681,-6.1681,-6.1712,-6.1717,-6.1729,-6.1762,-6.1748,-6.1776,-6.18,-6.1774,-6.1816,-6.1818,-6.1839,-6.1841,-6.1874,-6.1838,-6.1863,-6.1868,-6.1874,-6.1884,-6.1694,-6.1877,-6.1877,-6.1876,-6.1876,-6.1875,0,-6.1824,-6.1823,-6.1852,-6.187,-6.1895,-6.1853,-6.1864,-6.1887,-6.1925,-6.1931,-6.1954,-6.1995,-6.2025,-6.2009,-6.2035,-6.2064,-6.2044,-6.2072,-6.2068,-6.2068,-6.1915,-6.1897,-6.2089,-6.2089,-6.2088,-6.2088,-6.2088,-6.2088,-6.1921,-6.1984,-6.1969,-6.2034,-6.2032,-6.2073,-6.2083,-6.2095,-6.21,-6.2148,-6.2173,-6.2164,-6.2162,-6.2188,-6.2214,-6.2209,-6.222,-6.2256,-6.2243,-6.2099,-6.2078,-6.2058,-6.204,-6.2259,-6.226,-6.2392,-6.2394,-6.2395]},{"header":{"parameterUnit":"m.s-1","parameterCategory":1,"la1":30.2991,"la2":30.254,"lo1":-89.0895,"lo2":-89.0444,"dx":0.0017,"dy":0.0017,"nx":28,"ny":28,"refTime":"2022-11-03T21:00:00:Z","depth":0,"parameterNumber":3,"parameterNumberName":"V-component_of_WINDS"},"data":[0,0,0,0,0,0,0,0,0,0,0,0,0,0,0,0,0,0,0,0,0,0,0,0,0,0,0,0,0,0,0,0,0,0,0,0,0,0,0,0,0,0,0,0,0,0,0,0,0,0,0,0,0,0,0,0,0,0,2.5963,2.5962,0,2.5886,2.5885,2.5884,2.5825,2.5825,2.5824,2.5824,2.5739,2.5738,2.5736,0,0,0,0,0,0,0,0,0,0,0,0,0,2.6057,2.6056,2.5963,2.5962,2.5961,2.5886,2.5885,2.5884,2.5825,2.5825,2.5824,2.5823,2.574,2.5738,2.5736,0,0,0,0,0,0,0,0,0,0,0,0,0,2.6002,2.6055,2.5963,2.5923,2.5919,2.5887,2.5885,2.5884,2.5825,2.5825,2.5824,2.5823,2.5741,2.5738,2.5735,2.5735,0,0,2.5727,2.5726,0,0,0,0,0,0,0,0,2.6005,2.5998,2.593,2.5926,2.5921,2.5865,2.5887,2.5834,2.5826,2.5861,2.5824,2.5823,2.5781,2.5775,2.5762,2.5732,2.5728,2.5727,2.5726,2.5725,2.5724,0,0,0,0,0,0,0,2.6009,2.6001,2.5933,2.5929,2.5923,2.5908,2.5899,2.5877,2.5826,2.5858,2.5853,2.5845,2.5779,2.5765,2.576,2.5727,2.5727,2.5725,2.5723,2.5722,2.5696,2.5697,0,0,0,0,0,0,2.6019,2.6005,2.5935,2.593,2.5962,2.5907,2.5897,2.5883,2.5826,2.5817,2.5846,2.5843,2.577,2.5763,2.5757,2.5755,2.5725,2.5722,2.5721,2.5695,2.5696,2.5697,0,0,0,0,0,0,2.6022,2.6014,2.5938,2.5966,2.5956,2.5906,2.5891,2.5882,2.5869,2.5818,2.5808,2.5842,2.5769,2.576,2.5743,2.5752,2.5721,2.5719,2.5694,2.5695,2.5697,2.5751,0,0,0,0,0,0,2.6025,2.6015,2.6015,2.5967,2.5954,2.5926,2.5892,2.5881,2.5865,2.586,2.5811,2.5802,2.5768,2.5747,2.574,2.5747,2.5717,2.5693,2.5695,2.5696,2.5749,2.5754,2.576,0,0,0,0,0,2.6028,2.6031,2.6015,2.6007,2.5953,2.5926,2.5919,2.5881,2.5866,2.5865,2.5833,2.5804,2.5752,2.5745,2.5737,2.5744,2.5692,2.5694,2.5696,2.5746,2.5753,2.5759,0,0,0,0,0,0,2.6078,2.6024,2.6005,2.5993,2.5965,2.5917,2.5914,2.5889,2.5863,2.586,2.5812,2.5802,2.5789,2.5765,2.5758,2.5743,2.5719,2.5719,2.5759,2.5766,2.5771,2.5777,2.5714,0,0,0,0,0,2.6088,2.6072,2.6025,2.6019,2.6006,2.5963,2.595,2.5924,2.5892,2.5879,2.5845,2.5815,2.5792,2.5777,2.5753,2.5745,2.5735,2.5746,2.5752,2.5757,2.5757,2.5754,2.576,2.5703,2.5703,2.5703,0,0,2.6107,2.6076,2.6068,2.6028,2.6003,2.5988,2.5953,2.5937,2.5925,2.5876,2.5858,2.5833,2.5795,2.5784,2.5776,2.5763,2.5771,2.5759,2.5763,2.5761,2.5757,2.5762,2.5767,2.5705,2.5705,2.5704,0,0,2.6135,2.611,2.6103,2.6081,2.6045,2.6017,2.6016,2.5972,2.5954,2.5936,2.59,2.5885,2.5846,2.5822,2.5804,2.5829,2.5802,2.5822,2.585,2.5848,2.5853,2.5856,2.5867,2.5871,2.5823,2.5824,2.5824,0,2.6163,2.6139,2.6102,2.609,2.6074,2.6033,2.6026,2.6005,2.5963,2.5953,2.5939,2.5892,2.5864,2.5847,2.5854,2.5841,2.5838,2.5827,2.5855,2.5859,2.5862,2.5871,2.5875,2.5826,2.5826,2.5826,2.5826,0,2.6177,2.6161,2.616,2.6124,2.6108,2.6098,2.606,2.6048,2.6025,2.5999,2.5982,2.5948,2.5918,2.5912,2.5887,2.5893,2.5886,2.5865,2.5839,2.5871,2.5879,2.5882,2.5831,2.583,2.5829,2.5828,0,0,2.623,2.6178,2.6178,2.6163,2.6123,2.6109,2.6099,2.6072,2.6064,2.6037,2.6028,2.5998,2.598,2.596,2.5933,2.5931,2.5956,2.591,2.5908,2.5921,2.5963,2.598,2.5984,2.5938,2.5939,2.5939,2.5966,0,2.6252,2.6233,2.6202,2.6192,2.6178,2.6141,2.6133,2.6107,2.6084,2.6068,2.6041,2.6022,2.5998,2.5986,2.5983,2.5954,2.5964,2.5951,2.5929,2.5929,2.594,2.5988,2.6005,2.6032,2.5969,2.597,2.597,0,2.6274,2.6254,2.6244,2.6209,2.6202,2.6195,2.617,2.6155,2.6127,2.611,2.6091,2.6063,2.6051,2.6029,2.6012,2.6005,2.5994,2.5979,2.5979,2.5975,2.5951,2.5986,2.604,2.6044,2.5974,2.5974,2.5974,0,2.6317,2.6286,2.6277,2.6265,2.6223,2.6219,2.6202,2.6172,2.616,2.6138,2.613,2.6106,2.6093,2.6075,2.6042,2.6028,2.603,2.6004,2.6016,2.6017,2.6017,2.6017,2.607,2.601,2.601,2.601,2.601,0,2.6344,2.634,2.6296,2.629,2.6285,2.625,2.6246,2.6224,2.62,2.619,2.6156,2.6147,2.6103,2.609,2.6064,2.6055,2.6049,2.6036,2.6029,2.6039,2.6041,2.6031,2.6028,2.6011,2.601,2.601,2.601,0,2.6389,2.636,2.6348,2.6311,2.6302,2.63,2.6269,2.6262,2.6239,2.6227,2.6222,2.6184,2.6167,2.6132,2.6104,2.6087,2.6085,2.6072,2.6096,2.6091,2.6106,2.6105,2.6154,2.6159,2.6096,2.6096,2.6097,0,2.6409,2.6406,2.637,2.6362,2.6347,2.6334,2.6322,2.6288,2.6277,2.6247,2.6245,2.6226,2.6209,2.6183,2.6153,2.6132,2.6119,2.6138,2.6116,2.6128,2.6121,2.6122,2.6123,2.6143,2.6144,2.6144,2.6145,0,2.6448,2.6434,2.6419,2.6401,2.6389,2.6372,2.6353,2.6348,2.6309,2.6299,2.6283,2.627,2.6244,2.6226,2.6202,2.6183,2.6158,2.6153,2.6155,2.6165,2.6179,2.6173,2.611,2.6151,2.6151,2.615,2.615,2.6149,2.6481,2.6478,2.6454,2.6439,2.6422,2.6407,2.64,2.6378,2.6364,2.6342,2.6323,2.6309,2.6284,2.625,2.6233,2.6222,2.6209,2.6211,2.6212,2.6213,2.6219,2.6182,2.6217,2.6217,2.6217,2.6217,2.6216,0,2.6519,2.6503,2.649,2.6467,2.6456,2.6437,2.6416,2.6408,2.6397,2.6377,2.6362,2.6345,2.6329,2.6299,2.6281,2.6277,2.6266,2.6274,2.6273,2.627,2.623,2.6231,2.6284,2.6284,2.6284,2.6284,2.6284,2.6284,2.6537,2.6532,2.6516,2.6503,2.6486,2.6474,2.6464,2.645,2.6435,2.6418,2.6405,2.6387,2.6364,2.6344,2.6329,2.6321,2.6316,2.6328,2.6316,2.6279,2.6272,2.6266,2.6267,2.6327,2.6327,2.6357,2.6358,2.6358]}]]